| time (UTC) | temp C | wind direction | speed KPH | gust KPH | rain 1hr cm | rain 24hr cm | rain mn cm | humidity % | barometer mb |
| 20260504175518 | 22 | 145 | 1.6 | 8.0 | 0.00 | 0.00 | 0.00 | 29 | 1008.0 |
| 20260504175016 | 22 | 163 | 6.4 | 8.0 | 0.00 | 0.00 | 0.00 | 28 | 1009.0 |
| 20260504174517 | 22 | 329 | 4.8 | 4.8 | 0.00 | 0.00 | 0.00 | 30 | 1009.0 |
| 20260504174017 | 22 | 207 | 1.6 | 6.4 | 0.00 | 0.00 | 0.00 | 29 | 1009.0 |
| 20260504173517 | 22 | 174 | 0.0 | 9.7 | 0.00 | 0.00 | 0.00 | 30 | 1009.0 |
| 20260504173017 | 22 | 230 | 4.8 | 8.0 | 0.00 | 0.00 | 0.00 | 30 | 1009.0 |
| 20260504172516 | 22 | 211 | 4.8 | 4.8 | 0.00 | 0.00 | 0.00 | 30 | 1009.0 |
| 20260504172018 | 22 | 183 | 4.8 | 9.7 | 0.00 | 0.00 | 0.00 | 29 | 1009.0 |
| 20260504171516 | 21 | 223 | 9.7 | 9.7 | 0.00 | 0.00 | 0.00 | 30 | 1009.0 |
| 20260504171016 | 20 | 351 | 1.6 | 8.0 | 0.00 | 0.00 | 0.00 | 33 | 1009.0 |
| 20260504170525 | 20 | 301 | 1.6 | 4.8 | 0.00 | 0.00 | 0.00 | 32 | 1009.0 |
| 20260504151016 | 17 | 235 | 4.8 | 8.0 | 0.00 | 0.00 | 0.00 | 33 | 1011.0 |
| 20260504150517 | 17 | 295 | 3.2 | 9.7 | 0.00 | 0.00 | 0.00 | 35 | 1011.0 |
| 20260504141017 | 13 | 313 | 3.2 | 8.0 | 0.00 | 0.00 | 0.00 | 46 | 1012.0 |
| 20260504140516 | 13 | 182 | 6.4 | 8.0 | 0.00 | 0.00 | 0.00 | 46 | 1012.0 |
| 20260504130516 | 11 | 122 | 3.2 | 9.7 | 0.00 | 0.00 | 0.00 | 48 | 1013.0 |
| 20260504110517 | 8 | 165 | 6.4 | 8.0 | 0.00 | 0.00 | 0.00 | 52 | 1013.0 |
| 20260504100516 | 8 | 200 | 3.2 | 6.4 | 0.00 | 0.00 | 0.00 | 51 | 1013.0 |
| 20260504081518 | 9 | 198 | 0.0 | 6.4 | 0.00 | 0.00 | 0.00 | 46 | 1012.0 |
| 20260504081016 | 9 | 124 | 0.0 | 4.8 | 0.00 | 0.00 | 0.00 | 46 | 1012.0 |
| 20260504080516 | 9 | 257 | 0.0 | 8.0 | 0.00 | 0.00 | 0.00 | 46 | 1012.0 |
| 20260504050516 | 9 | 177 | 0.0 | 4.8 | 0.00 | 0.00 | 0.00 | 46 | 1012.0 |
| 20260504050016 | 9 | 188 | 1.6 | 4.8 | 0.00 | 0.00 | 0.00 | 45 | 1012.0 |
| 20260504045518 | 10 | 302 | 0.0 | 4.8 | 0.00 | 0.00 | 0.00 | 45 | 1012.0 |
| 20260504045016 | 10 | 300 | 3.2 | 4.8 | 0.00 | 0.00 | 0.00 | 45 | 1012.0 |
| 20260504044518 | 10 | 240 | 4.8 | 8.0 | 0.00 | 0.00 | 0.00 | 45 | 1012.0 |
| 20260504044016 | 10 | 262 | 1.6 | 3.2 | 0.00 | 0.00 | 0.00 | 44 | 1012.0 |
| 20260504043517 | 9 | 308 | 1.6 | 8.0 | 0.00 | 0.00 | 0.00 | 44 | 1012.0 |
| 20260504043018 | 10 | 249 | 3.2 | 6.4 | 0.00 | 0.00 | 0.00 | 44 | 1012.0 |
| 20260504042517 | 10 | 125 | 1.6 | 6.4 | 0.00 | 0.00 | 0.00 | 44 | 1012.0 |
| 20260504042017 | 10 | 144 | 3.2 | 8.0 | 0.00 | 0.00 | 0.00 | 44 | 1012.0 |
| 20260504041516 | 10 | 154 | 1.6 | 4.8 | 0.00 | 0.00 | 0.00 | 44 | 1012.0 |
| 20260504041017 | 10 | 185 | 1.6 | 4.8 | 0.00 | 0.00 | 0.00 | 45 | 1012.0 |
| 20260504040516 | 10 | 189 | 0.0 | 4.8 | 0.00 | 0.00 | 0.00 | 45 | 1012.0 |
| 20260504040016 | 10 | 70 | 1.6 | 4.8 | 0.00 | 0.00 | 0.00 | 44 | 1012.0 |
| 20260504035516 | 10 | 198 | 1.6 | 4.8 | 0.00 | 0.00 | 0.00 | 45 | 1011.0 |
| 20260504035017 | 10 | 316 | 0.0 | 3.2 | 0.00 | 0.00 | 0.00 | 44 | 1011.0 |
| 20260504034517 | 10 | 309 | 0.0 | 3.2 | 0.00 | 0.00 | 0.00 | 43 | 1012.0 |
| 20260504034016 | 10 | 2 | 1.6 | 3.2 | 0.00 | 0.00 | 0.00 | 44 | 1012.0 |
| 20260504033517 | 10 | 179 | 3.2 | 3.2 | 0.00 | 0.00 | 0.00 | 43 | 1012.0 |
| 20260504033016 | 10 | 68 | 0.0 | 4.8 | 0.00 | 0.00 | 0.00 | 43 | 1012.0 |
| 20260504032516 | 10 | 109 | 0.0 | 3.2 | 0.00 | 0.00 | 0.00 | 43 | 1012.0 |
| 20260504032016 | 10 | 147 | 0.0 | 6.4 | 0.00 | 0.00 | 0.00 | 42 | 1012.0 |
| 20260504031517 | 10 | 25 | 0.0 | 3.2 | 0.00 | 0.00 | 0.00 | 42 | 1012.0 |
| 20260504031018 | 10 | 62 | 0.0 | 4.8 | 0.00 | 0.00 | 0.00 | 42 | 1011.0 |
| 20260504030516 | 10 | 147 | 0.0 | 3.2 | 0.00 | 0.00 | 0.00 | 41 | 1012.0 |
| 20260504030016 | 10 | 168 | 0.0 | 3.2 | 0.00 | 0.00 | 0.00 | 41 | 1011.0 |
| 20260504025517 | 10 | 259 | 1.6 | 4.8 | 0.00 | 0.00 | 0.00 | 40 | 1011.0 |
| 20260504025017 | 10 | 127 | 3.2 | 6.4 | 0.00 | 0.00 | 0.00 | 41 | 1011.0 |
| 20260504024516 | 10 | 189 | 3.2 | 3.2 | 0.00 | 0.00 | 0.00 | 40 | 1012.0 |
| 20260504023527 | 10 | 139 | 0.0 | 3.2 | 0.00 | 0.00 | 0.00 | 40 | 1012.0 |
| 20260504023016 | 10 | 129 | 0.0 | 3.2 | 0.00 | 0.00 | 0.00 | 40 | 1011.0 |
| 20260504022516 | 10 | 234 | 0.0 | 3.2 | 0.00 | 0.00 | 0.00 | 40 | 1012.0 |
| 20260504022016 | 10 | 201 | 0.0 | 3.2 | 0.00 | 0.00 | 0.00 | 39 | 1012.0 |
| 20260504021516 | 10 | 244 | 0.0 | 3.2 | 0.00 | 0.00 | 0.00 | 39 | 1012.0 |
| 20260504021016 | 11 | 128 | 3.2 | 4.8 | 0.00 | 0.00 | 0.00 | 39 | 1011.0 |
| 20260504020517 | 11 | 224 | 0.0 | 3.2 | 0.00 | 0.00 | 0.00 | 38 | 1011.0 |
| 20260504020017 | 11 | 154 | 0.0 | 4.8 | 0.00 | 0.00 | 0.00 | 38 | 1012.0 |
| 20260504015516 | 11 | 168 | 3.2 | 4.8 | 0.00 | 0.00 | 0.00 | 38 | 1011.0 |
| 20260504015016 | 11 | 166 | 1.6 | 4.8 | 0.00 | 0.00 | 0.00 | 38 | 1012.0 |
| 20260504014516 | 11 | 142 | 0.0 | 4.8 | 0.00 | 0.00 | 0.00 | 37 | 1011.0 |
| 20260504014016 | 11 | 130 | 0.0 | 3.2 | 0.00 | 0.00 | 0.00 | 37 | 1011.0 |
| 20260504013518 | 11 | 166 | 0.0 | 3.2 | 0.00 | 0.00 | 0.00 | 37 | 1011.0 |
| 20260504013016 | 11 | 129 | 0.0 | 3.2 | 0.00 | 0.00 | 0.00 | 37 | 1011.0 |
| 20260504012517 | 11 | 216 | 0.0 | 3.2 | 0.00 | 0.00 | 0.00 | 37 | 1011.0 |
| 20260504012016 | 11 | 115 | 0.0 | 3.2 | 0.00 | 0.00 | 0.00 | 37 | 1011.0 |
| 20260504011517 | 11 | 152 | 1.6 | 1.6 | 0.00 | 0.00 | 0.00 | 37 | 1011.0 |
| 20260504011023 | 11 | 271 | 1.6 | 3.2 | 0.00 | 0.00 | 0.00 | 36 | 1011.0 |
| 20260504010517 | 11 | 261 | 0.0 | 3.2 | 0.00 | 0.00 | 0.00 | 36 | 1010.0 |
| 20260504010018 | 11 | 253 | 0.0 | 1.6 | 0.00 | 0.00 | 0.00 | 36 | 1011.0 |
| 20260504005516 | 11 | 304 | 0.0 | 1.6 | 0.00 | 0.00 | 0.00 | 36 | 1011.0 |
| 20260504005016 | 11 | 179 | 1.6 | 1.6 | 0.00 | 0.00 | 0.00 | 35 | 1011.0 |
| 20260504004516 | 11 | 44 | 0.0 | 1.6 | 0.00 | 0.00 | 0.00 | 35 | 1010.0 |
| 20260504004016 | 11 | 299 | 0.0 | 1.6 | 0.00 | 0.00 | 0.00 | 34 | 1010.0 |
| 20260504003517 | 12 | 126 | 0.0 | 1.6 | 0.00 | 0.00 | 0.00 | 34 | 1010.0 |
| 20260504003017 | 12 | 163 | 1.6 | 3.2 | 0.00 | 0.00 | 0.00 | 33 | 1010.0 |
| 20260504002516 | 12 | 156 | 3.2 | 3.2 | 0.00 | 0.00 | 0.00 | 33 | 1010.0 |
| 20260504002016 | 12 | 278 | 0.0 | 3.2 | 0.00 | 0.00 | 0.00 | 33 | 1010.0 |
| 20260504001517 | 12 | 333 | 1.6 | 4.8 | 0.00 | 0.00 | 0.00 | 32 | 1010.0 |
| 20260504001016 | 12 | 322 | 0.0 | 1.6 | 0.00 | 0.00 | 0.00 | 31 | 1010.0 |
| 20260504000517 | 12 | 110 | 0.0 | 4.8 | 0.00 | 0.00 | 0.00 | 31 | 1010.0 |
| 20260504000018 | 13 | 129 | 0.0 | 4.8 | 0.00 | 0.00 | 0.00 | 30 | 1010.0 |
| 20260503235518 | 13 | 289 | 1.6 | 4.8 | 0.00 | 0.00 | 0.00 | 30 | 1009.0 |
| 20260503235016 | 13 | 58 | 0.0 | 4.8 | 0.00 | 0.00 | 0.00 | 30 | 1010.0 |
| 20260503234517 | 13 | 62 | 3.2 | 8.0 | 0.00 | 0.00 | 0.00 | 29 | 1009.0 |
| 20260503234016 | 13 | 180 | 1.6 | 3.2 | 0.00 | 0.00 | 0.00 | 30 | 1009.0 |
| 20260503233516 | 13 | 284 | 0.0 | 3.2 | 0.00 | 0.00 | 0.00 | 29 | 1010.0 |
| 20260503233016 | 13 | 28 | 6.4 | 9.7 | 0.00 | 0.00 | 0.00 | 29 | 1009.0 |
| 20260503232516 | 13 | 250 | 1.6 | 4.8 | 0.00 | 0.00 | 0.00 | 29 | 1009.0 |
| 20260503232017 | 14 | 113 | 3.2 | 4.8 | 0.00 | 0.00 | 0.00 | 28 | 1009.0 |
| 20260503231516 | 14 | 68 | 1.6 | 6.4 | 0.00 | 0.00 | 0.00 | 28 | 1009.0 |
| 20260503231016 | 14 | 184 | 0.0 | 4.8 | 0.00 | 0.00 | 0.00 | 27 | 1009.0 |
| 20260503230516 | 14 | 160 | 0.0 | 3.2 | 0.00 | 0.00 | 0.00 | 27 | 1009.0 |
| 20260503230016 | 14 | 306 | 1.6 | 6.4 | 0.00 | 0.00 | 0.00 | 27 | 1009.0 |
| 20260503225516 | 14 | 262 | 8.0 | 8.0 | 0.00 | 0.00 | 0.00 | 26 | 1009.0 |
| 20260503225016 | 14 | 61 | 8.0 | 8.0 | 0.00 | 0.00 | 0.00 | 27 | 1009.0 |
| 20260503224516 | 14 | 328 | 1.6 | 8.0 | 0.00 | 0.00 | 0.00 | 27 | 1009.0 |
| 20260503224016 | 14 | 164 | 3.2 | 9.7 | 0.00 | 0.00 | 0.00 | 26 | 1009.0 |
| 20260503223517 | 14 | 4 | 3.2 | 8.0 | 0.00 | 0.00 | 0.00 | 27 | 1009.0 |
| 20260503223016 | 14 | 260 | 1.6 | 6.4 | 0.00 | 0.00 | 0.00 | 27 | 1009.0 |
| 20260503222517 | 13 | 184 | 0.0 | 8.0 | 0.00 | 0.00 | 0.00 | 27 | 1009.0 |
| 20260503222017 | 14 | 262 | 4.8 | 8.0 | 0.00 | 0.00 | 0.00 | 26 | 1009.0 |
| 20260503221516 | 14 | 206 | 4.8 | 4.8 | 0.00 | 0.00 | 0.00 | 26 | 1009.0 |
| 20260503221016 | 14 | 147 | 3.2 | 8.0 | 0.00 | 0.00 | 0.00 | 26 | 1009.0 |
| 20260503220517 | 15 | 28 | 3.2 | 9.7 | 0.00 | 0.00 | 0.00 | 25 | 1009.0 |
| 20260503220016 | 15 | 256 | 6.4 | 11.3 | 0.00 | 0.00 | 0.00 | 26 | 1009.0 |
| 20260503215517 | 15 | 12 | 1.6 | 3.2 | 0.00 | 0.00 | 0.00 | 27 | 1008.0 |
| 20260503215017 | 15 | 331 | 3.2 | 9.7 | 0.00 | 0.00 | 0.00 | 26 | 1009.0 |
| 20260503214516 | 15 | 19 | 1.6 | 6.4 | 0.00 | 0.00 | 0.00 | 27 | 1009.0 |
| 20260503214016 | 15 | 349 | 3.2 | 6.4 | 0.00 | 0.00 | 0.00 | 25 | 1009.0 |
| 20260503213516 | 15 | 266 | 8.0 | 9.7 | 0.00 | 0.00 | 0.00 | 25 | 1009.0 |
| 20260503213016 | 15 | 234 | 6.4 | 14.5 | 0.00 | 0.00 | 0.00 | 25 | 1009.0 |
| 20260503212516 | 15 | 319 | 9.7 | 19.3 | 0.00 | 0.00 | 0.00 | 25 | 1009.0 |
| 20260503212016 | 15 | 25 | 6.4 | 11.3 | 0.00 | 0.00 | 0.00 | 26 | 1009.0 |
| 20260503211516 | 15 | 219 | 6.4 | 12.9 | 0.00 | 0.00 | 0.00 | 25 | 1009.0 |
| 20260503211017 | 15 | 169 | 3.2 | 9.7 | 0.00 | 0.00 | 0.00 | 25 | 1009.0 |
| 20260503210517 | 15 | 95 | 0.0 | 6.4 | 0.00 | 0.00 | 0.00 | 25 | 1009.0 |
| 20260503210016 | 13 | 70 | 6.4 | 9.7 | 0.00 | 0.00 | 0.00 | 26 | 1009.0 |
| 20260503205516 | 14 | 28 | 12.9 | 16.1 | 0.00 | 0.00 | 0.00 | 25 | 1009.0 |
| 20260503205017 | 14 | 8 | 3.2 | 17.7 | 0.00 | 0.00 | 0.00 | 25 | 1009.0 |
| 20260503204516 | 13 | 21 | 1.6 | 11.3 | 0.00 | 0.00 | 0.00 | 26 | 1009.0 |
| 20260503204016 | 13 | 87 | 4.8 | 19.3 | 0.00 | 0.00 | 0.00 | 26 | 1009.0 |
| 20260503203516 | 15 | 354 | 9.7 | 20.9 | 0.00 | 0.00 | 0.00 | 25 | 1009.0 |
| 20260503203017 | 15 | 307 | 4.8 | 8.0 | 0.00 | 0.00 | 0.00 | 26 | 1009.0 |
| 20260503202516 | 15 | 249 | 3.2 | 4.8 | 0.00 | 0.00 | 0.00 | 26 | 1009.0 |
| 20260503202017 | 15 | 286 | 3.2 | 16.1 | 0.00 | 0.00 | 0.00 | 24 | 1009.0 |
| 20260503201517 | 15 | 339 | 4.8 | 4.8 | 0.00 | 0.00 | 0.00 | 28 | 1009.0 |
| 20260503201016 | 13 | 11 | 3.2 | 11.3 | 0.00 | 0.00 | 0.00 | 27 | 1009.0 |
| 20260503200516 | 13 | 0 | 3.2 | 11.3 | 0.00 | 0.00 | 0.00 | 27 | 1009.0 |
| 20260503200018 | 13 | 267 | 3.2 | 14.5 | 0.00 | 0.00 | 0.00 | 27 | 1009.0 |
| 20260503195517 | 13 | 145 | 3.2 | 14.5 | 0.00 | 0.00 | 0.00 | 27 | 1009.0 |
| 20260503195016 | 12 | 199 | 6.4 | 17.7 | 0.00 | 0.00 | 0.00 | 28 | 1009.0 |
| 20260503194516 | 12 | 37 | 4.8 | 14.5 | 0.00 | 0.00 | 0.00 | 27 | 1009.0 |
| 20260503194017 | 14 | 352 | 8.0 | 27.4 | 0.00 | 0.00 | 0.00 | 26 | 1009.0 |
| 20260503193516 | 15 | 328 | 4.8 | 14.5 | 0.00 | 0.00 | 0.00 | 25 | 1009.0 |
| 20260503193017 | 15 | 235 | 1.6 | 6.4 | 0.00 | 0.00 | 0.00 | 27 | 1009.0 |
| 20260503192517 | 15 | 108 | 3.2 | 8.0 | 0.00 | 0.00 | 0.00 | 28 | 1009.0 |
| 20260503192019 | 14 | 280 | 1.6 | 11.3 | 0.00 | 0.00 | 0.00 | 27 | 1009.0 |
| 20260503191518 | 13 | 295 | 4.8 | 12.9 | 0.00 | 0.00 | 0.00 | 27 | 1009.0 |
| 20260503191017 | 13 | 13 | 9.7 | 11.3 | 0.00 | 0.00 | 0.00 | 28 | 1009.0 |
| 20260503190516 | 13 | 50 | 11.3 | 14.5 | 0.00 | 0.00 | 0.00 | 28 | 1009.0 |
| 20260503190017 | 14 | 29 | 16.1 | 20.9 | 0.00 | 0.00 | 0.00 | 27 | 1010.0 |
| 20260503185517 | 14 | 0 | 6.4 | 9.7 | 0.00 | 0.00 | 0.00 | 27 | 1010.0 |
| 20260503185017 | 13 | 341 | 4.8 | 16.1 | 0.00 | 0.00 | 0.00 | 28 | 1010.0 |
| 20260503184516 | 13 | 260 | 6.4 | 14.5 | 0.00 | 0.00 | 0.00 | 29 | 1010.0 |
| 20260503184016 | 13 | 24 | 12.9 | 16.1 | 0.00 | 0.00 | 0.00 | 30 | 1010.0 |
| 20260503183516 | 13 | 342 | 11.3 | 20.9 | 0.00 | 0.00 | 0.00 | 28 | 1010.0 |
| 20260503183016 | 12 | 4 | 6.4 | 8.0 | 0.00 | 0.00 | 0.00 | 31 | 1010.0 |
| 20260503182516 | 12 | 65 | 8.0 | 14.5 | 0.00 | 0.00 | 0.00 | 31 | 1010.0 |
| 20260503182017 | 12 | 203 | 1.6 | 9.7 | 0.00 | 0.00 | 0.00 | 32 | 1010.0 |
| 20260503181516 | 11 | 359 | 11.3 | 27.4 | 0.00 | 0.00 | 0.00 | 31 | 1010.0 |
| 20260503181016 | 12 | 76 | 3.2 | 12.9 | 0.00 | 0.00 | 0.00 | 31 | 1010.0 |
| 20260503180516 | 12 | 295 | 4.8 | 24.1 | 0.00 | 0.00 | 0.00 | 31 | 1010.0 |
| 20260503180017 | 12 | 214 | 3.2 | 14.5 | 0.00 | 0.00 | 0.00 | 31 | 1010.0 |